Change the Weather History Date:

Saturday, November 19, 2011

  Actual Average Record
Temperature  
Mean Temperature 68 °F -  
Max Temperature 78 °F 60 °F 80 °F (2008)
Min Temperature 59 °F 42 °F 26 °F (2000)
Cooling Degree Days 4    
Growing Degree Days 18 (Base 50)    
Moisture  
Dew Point 56 °F    
Average Humidity 77    
Maximum Humidity 100    
Minimum Humidity 54    
Precipitation  
Precipitation 0.00 in - - ()
Sea Level Pressure  
Sea Level Pressure 29.84 in    
Wind  
Wind Speed 9 mph (SSE)    
Max Wind Speed 15 mph    
Max Gust Speed 24 mph    
Visibility 10 miles    
Events      
Averages and records for this station are not official NWS values.
T = Trace of Precipitation, MM = Missing Value Source: NWS Daily Summary

Daily Weather History Graph

Daily Weather History Graph

Search for Another Location

Airport or City:

Trip Planner

Search our weather history database for the weather conditions in past years. The results will help you decide how hot, cold, wet, or windy it might be!

Date:

Astronomy

Nov. 19, 2011 Rise Set
Actual Time 7:04 AM CST 5:21 PM CST
Civil Twilight 6:37 AM CST 5:48 PM CST
Nautical Twilight 6:07 AM CST 6:19 PM CST
Astronomical Twilight 5:37 AM CST 6:49 PM CST
Moon 12:42 AM CST (11/19) 1:25 PM CST (11/19)
Length of Visible Light 11h 10m
Length of Day
10h 17m
Last Quarter, 38% of the Moon is Illuminated
Nov 19
Last Quarter
Nov 25
New
Dec 2
First Quarter
Dec 10
Full
Dec 17
Last Quarter

Hourly Weather History & Observations

Time (CST) Temp. Dew Point Humidity Pressure Visibility Wind Dir Wind Speed Gust Speed Precip Events Conditions
12:15 AM 59.0 °F 50.0 °F 72% 29.85 in 10.0 mi SSE 10.4 mph - N/A   Overcast
12:35 AM 60.8 °F 50.0 °F 68% 29.85 in 10.0 mi SSE 9.2 mph - N/A   Overcast
12:55 AM 60.8 °F 50.0 °F 68% 29.85 in 10.0 mi SSE 9.2 mph - N/A   Overcast
1:15 AM 60.8 °F 50.0 °F 68% 29.84 in 10.0 mi SSE 9.2 mph - N/A   Overcast
1:35 AM 60.8 °F 51.8 °F 72% 29.84 in 10.0 mi SSE 9.2 mph - N/A   Overcast
1:55 AM 60.8 °F 51.8 °F 72% 29.83 in 10.0 mi SSE 9.2 mph - N/A   Mostly Cloudy
2:15 AM 60.8 °F 53.6 °F 77% 29.83 in 10.0 mi SSE 9.2 mph - N/A   Overcast
2:35 AM 60.8 °F 53.6 °F 77% 29.82 in 10.0 mi South 11.5 mph 16.1 mph N/A   Overcast
2:55 AM 60.8 °F 53.6 °F 77% 29.82 in 10.0 mi South 8.1 mph - N/A   Overcast
3:15 AM 62.6 °F 53.6 °F 72% 29.82 in 10.0 mi South 12.7 mph - N/A   Mostly Cloudy
3:35 AM 62.6 °F 53.6 °F 72% 29.82 in 10.0 mi SSE 8.1 mph - N/A   Overcast
3:55 AM 62.6 °F 55.4 °F 77% 29.82 in 10.0 mi South 5.8 mph 21.9 mph N/A   Overcast
4:15 AM 62.6 °F 55.4 °F 77% 29.82 in 10.0 mi South 10.4 mph 18.4 mph N/A   Mostly Cloudy
4:35 AM 62.6 °F 55.4 °F 77% 29.82 in 10.0 mi SSW 15.0 mph 18.4 mph N/A   Mostly Cloudy
4:55 AM 62.6 °F 55.4 °F 77% 29.82 in 10.0 mi South 11.5 mph 17.3 mph N/A   Overcast
5:15 AM 62.6 °F 55.4 °F 77% 29.82 in 10.0 mi South 9.2 mph 18.4 mph N/A   Overcast
5:35 AM 62.6 °F 55.4 °F 77% 29.83 in 10.0 mi SSW 11.5 mph 18.4 mph N/A   Overcast
6:55 AM 64.4 °F 57.2 °F 77% 29.83 in 10.0 mi South 9.2 mph - N/A   Overcast
7:55 AM 64.4 °F 57.2 °F 77% 29.84 in 10.0 mi SSE 6.9 mph - N/A   Overcast
8:55 AM 66.2 °F 59.0 °F 78% 29.85 in 10.0 mi South 11.5 mph 20.7 mph N/A   Overcast
10:55 AM 71.6 °F 60.8 °F 69% 29.85 in 10.0 mi South 12.7 mph - N/A   Mostly Cloudy
11:55 AM 71.6 °F 60.8 °F 69% 29.82 in 10.0 mi South 12.7 mph 24.2 mph N/A   Overcast
12:55 PM 75.2 °F 60.8 °F 61% 29.79 in 10.0 mi South 13.8 mph 19.6 mph N/A   Scattered Clouds
3:55 PM 78.8 °F 60.8 °F 54% 29.78 in 10.0 mi South 13.8 mph 20.7 mph N/A   Clear
9:15 PM 64.4 °F 60.8 °F 88% 29.87 in 10.0 mi ESE 3.5 mph - N/A   Clear
9:35 PM 64.4 °F 60.8 °F 88% 29.89 in 10.0 mi ENE 3.5 mph - N/A   Clear
10:35 PM 60.8 °F 59.0 °F 94% 29.90 in 10.0 mi SE 3.5 mph - N/A   Clear
10:55 PM 62.6 °F 60.8 °F 94% 29.90 in 10.0 mi SSE 3.5 mph - N/A   Clear
11:15 PM 60.8 °F 59.0 °F 94% 29.90 in 10.0 mi Calm Calm - N/A   Clear
11:35 PM 60.8 °F 59.0 °F 94% 29.91 in 7.0 mi Calm Calm - N/A   Clear
11:55 PM 60.8 °F 60.8 °F 100% 29.91 in 5.0 mi Calm Calm - N/A   Clear